• In Österreich
  • Länderverzeichnis
  • Für 7 Tage
  • Wassertemperatur
  • Satellitenkarten
  • Wetterkarte
  • News
  • Widgets
  • user-avatar
    Anmelden

    Stündliche Wetter Skuratovo

    Heute, 20 Juli, Freitag

    Zeit Temperatur Niederschläge Wind Luftdruck Luftfeuchtigkeit
    00:00 +17°C° 0 mm 2 m/S 735 mmHg 96%
    01:00 +17°C° 0 mm 2 m/S 735 mmHg 97%
    02:00 +17°C° 0 mm 2 m/S 734 mmHg 97%
    03:00 +17°C° 0 mm 2 m/S 734 mmHg 97%
    04:00 +17°C° 0 mm 2 m/S 734 mmHg 97%
    05:00 +17°C° 0 mm 2 m/S 734 mmHg 97%
    06:00 +18°C° 0,1 mm 2 m/S 734 mmHg 96%
    07:00 +19°C° 0,1 mm 2 m/S 734 mmHg 94%
    08:00 +19°C° 0,1 mm 2 m/S 734 mmHg 93%
    09:00 +20°C° 0,2 mm 2 m/S 734 mmHg 90%
    10:00 +21°C° 0,2 mm 2 m/S 734 mmHg 86%
    11:00 +23°C° 0,2 mm 2 m/S 734 mmHg 83%
    12:00 +24°C° 0,3 mm 2 m/S 734 mmHg 79%
    13:00 +24°C° 0,3 mm 2 m/S 734 mmHg 75%
    14:00 +25°C° 0,3 mm 2 m/S 734 mmHg 70%
    15:00 +25°C° 0,3 mm 2 m/S 734 mmHg 72%
    16:00 +25°C° 0,3 mm 2 m/S 733 mmHg 73%
    17:00 +25°C° 0,3 mm 2 m/S 733 mmHg 74%
    18:00 +24°C° 0,1 mm 2 m/S 733 mmHg 80%
    19:00 +23°C° 0,1 mm 1 m/S 733 mmHg 85%
    20:00 +21°C° 0,1 mm 1 m/S 733 mmHg 91%
    21:00 +21°C° 0 mm 1 m/S 733 mmHg 93%
    22:00 +20°C° 0 mm 1 m/S 733 mmHg 95%
    23:00 +19°C° 0 mm 1 m/S 733 mmHg 97%

    Morgen, 21 Juli, Samstag

    Zeit Temperatur Niederschläge Wind Luftdruck Luftfeuchtigkeit
    00:00 +19°C° 0 mm 1 m/S 733 mmHg 97%
    01:00 +16°C° 0 mm 0 m/S 733 mmHg 97%
    02:00 +16°C° 0 mm 0 m/S 733 mmHg 97%
    03:00 +16°C° 0 mm 0 m/S 733 mmHg 97%
    04:00 +17°C° 0 mm 0 m/S 733 mmHg 97%
    05:00 +17°C° 0 mm 0 m/S 733 mmHg 97%
    06:00 +18°C° 0 mm 0 m/S 733 mmHg 92%
    07:00 +20°C° 0 mm 0 m/S 733 mmHg 86%
    08:00 +22°C° 0 mm 0 m/S 734 mmHg 81%
    09:00 +24°C° 0,3 mm 1 m/S 734 mmHg 79%
    10:00 +25°C° 0,3 mm 1 m/S 734 mmHg 78%
    11:00 +26°C° 0,3 mm 1 m/S 734 mmHg 77%
    12:00 +26°C° 0,7 mm 1 m/S 734 mmHg 75%
    13:00 +27°C° 0,7 mm 1 m/S 733 mmHg 73%
    14:00 +27°C° 0,7 mm 1 m/S 733 mmHg 71%
    15:00 +27°C° 1,4 mm 1 m/S 733 mmHg 76%
    16:00 +26°C° 1,4 mm 1 m/S 733 mmHg 81%
    17:00 +26°C° 1,4 mm 1 m/S 733 mmHg 86%
    18:00 +25°C° 0,6 mm 1 m/S 733 mmHg 89%
    19:00 +23°C° 0,6 mm 1 m/S 733 mmHg 91%
    20:00 +22°C° 0,6 mm 1 m/S 733 mmHg 94%
    21:00 +22°C° 0,3 mm 1 m/S 733 mmHg 95%
    22:00 +21°C° 0,3 mm 1 m/S 733 mmHg 96%
    23:00 +21°C° 0,3 mm 1 m/S 733 mmHg 97%

    übermorgen, 22 Juli, Sonntag

    Zeit Temperatur Niederschläge Wind Luftdruck Luftfeuchtigkeit
    00:00 +20°C° 0,2 mm 1 m/S 733 mmHg 97%
    01:00 +20°C° 0,2 mm 1 m/S 733 mmHg 97%
    02:00 +20°C° 0,2 mm 1 m/S 733 mmHg 98%
    03:00 +20°C° 0,1 mm 1 m/S 733 mmHg 98%
    04:00 +19°C° 0,1 mm 2 m/S 733 mmHg 98%
    05:00 +19°C° 0,1 mm 2 m/S 733 mmHg 98%
    06:00 +19°C° 0,1 mm 2 m/S 733 mmHg 97%
    07:00 +20°C° 0,1 mm 2 m/S 733 mmHg 95%
    08:00 +21°C° 0,1 mm 2 m/S 733 mmHg 94%
    09:00 +21°C° 0,2 mm 2 m/S 733 mmHg 92%
    10:00 +22°C° 0,2 mm 3 m/S 733 mmHg 90%
    11:00 +22°C° 0,2 mm 3 m/S 733 mmHg 88%
    12:00 +22°C° 0,3 mm 3 m/S 733 mmHg 86%
    13:00 +24°C° 0,3 mm 3 m/S 733 mmHg 84%
    14:00 +24°C° 0,3 mm 3 m/S 733 mmHg 82%
    15:00 +24°C° 0,3 mm 3 m/S 733 mmHg 82%
    16:00 +22°C° 0,3 mm 3 m/S 733 mmHg 83%
    17:00 +22°C° 0,3 mm 3 m/S 733 mmHg 84%
    18:00 +22°C° 0,1 mm 3 m/S 733 mmHg 86%
    19:00 +21°C° 0,1 mm 2 m/S 733 mmHg 89%
    20:00 +20°C° 0,1 mm 2 m/S 733 mmHg 91%
    21:00 +20°C° 0,1 mm 2 m/S 733 mmHg 93%
    22:00 +20°C° 0,1 mm 2 m/S 733 mmHg 95%
    23:00 +20°C° 0,1 mm 2 m/S 733 mmHg 96%

    23 Juli, Montag

    Zeit Temperatur Niederschläge Wind Luftdruck Luftfeuchtigkeit
    00:00 +20°C° 0,1 mm 2 m/S 733 mmHg 97%
    01:00 +20°C° 0,1 mm 2 m/S 733 mmHg 97%
    02:00 +19°C° 0,1 mm 2 m/S 733 mmHg 98%
    03:00 +19°C° 0,1 mm 2 m/S 733 mmHg 98%
    04:00 +19°C° 0,1 mm 2 m/S 733 mmHg 98%
    05:00 +19°C° 0,1 mm 2 m/S 733 mmHg 98%
    06:00 +20°C° 0,1 mm 2 m/S 733 mmHg 96%
    07:00 +20°C° 0,1 mm 2 m/S 733 mmHg 94%
    08:00 +21°C° 0,1 mm 3 m/S 733 mmHg 93%
    09:00 +21°C° 0,3 mm 3 m/S 733 mmHg 90%
    10:00 +22°C° 0,3 mm 3 m/S 734 mmHg 87%
    11:00 +22°C° 0,3 mm 3 m/S 734 mmHg 85%
    12:00 +22°C° 0,3 mm 3 m/S 734 mmHg 83%
    13:00 +24°C° 0,3 mm 3 m/S 734 mmHg 81%
    14:00 +24°C° 0,3 mm 2 m/S 734 mmHg 80%
    15:00 +24°C° 0,1 mm 2 m/S 734 mmHg 80%
    16:00 +24°C° 0,1 mm 2 m/S 734 mmHg 80%
    17:00 +24°C° 0,1 mm 2 m/S 734 mmHg 81%
    18:00 +23°C° 0,1 mm 2 m/S 734 mmHg 84%
    19:00 +21°C° 0,1 mm 2 m/S 734 mmHg 88%
    20:00 +22°C° 0,1 mm 1 m/S 734 mmHg 92%
    21:00 +20°C° 0 mm 2 m/S 734 mmHg 93%
    22:00 +20°C° 0 mm 2 m/S 734 mmHg 95%
    23:00 +19°C° 0 mm 2 m/S 734 mmHg 96%

    24 Juli, Dienstag

    Zeit Temperatur Niederschläge Wind Luftdruck Luftfeuchtigkeit
    00:00 +19°C° 0 mm 2 m/S 734 mmHg 96%
    01:00 +20°C° 0 mm 1 m/S 734 mmHg 97%
    02:00 +19°C° 0 mm 1 m/S 734 mmHg 98%
    03:00 +19°C° 0 mm 1 m/S 734 mmHg 98%
    04:00 +19°C° 0 mm 1 m/S 735 mmHg 98%
    05:00 +19°C° 0 mm 1 m/S 735 mmHg 98%
    06:00 +20°C° 0,1 mm 1 m/S 735 mmHg 95%
    07:00 +21°C° 0,1 mm 1 m/S 735 mmHg 92%
    08:00 +22°C° 0,1 mm 1 m/S 735 mmHg 89%
    09:00 +23°C° 0,2 mm 1 m/S 736 mmHg 88%
    10:00 +23°C° 0,2 mm 2 m/S 736 mmHg 87%
    11:00 +23°C° 0,2 mm 2 m/S 736 mmHg 86%
    12:00 +24°C° 0,6 mm 2 m/S 736 mmHg 82%
    13:00 +25°C° 0,6 mm 2 m/S 736 mmHg 78%
    14:00 +26°C° 0,6 mm 2 m/S 736 mmHg 74%
    15:00 +26°C° 0,5 mm 2 m/S 736 mmHg 76%
    16:00 +26°C° 0,5 mm 2 m/S 736 mmHg 77%
    17:00 +26°C° 0,5 mm 2 m/S 736 mmHg 79%
    18:00 +24°C° 0,8 mm 1 m/S 736 mmHg 84%
    19:00 +23°C° 0,8 mm 1 m/S 736 mmHg 89%
    20:00 +22°C° 0,8 mm 1 m/S 736 mmHg 94%
    21:00 +21°C° 0,1 mm 1 m/S 736 mmHg 95%
    22:00 +20°C° 0,1 mm 2 m/S 736 mmHg 96%
    23:00 +19°C° 0,1 mm 2 m/S 737 mmHg 97%

    25 Juli, Mittwoch

    Zeit Temperatur Niederschläge Wind Luftdruck Luftfeuchtigkeit
    00:00 +19°C° 0 mm 2 m/S 737 mmHg 97%
    01:00 +19°C° 0 mm 2 m/S 737 mmHg 98%
    02:00 +18°C° 0 mm 2 m/S 737 mmHg 98%
    03:00 +18°C° 0 mm 2 m/S 737 mmHg 98%
    04:00 +18°C° 0 mm 2 m/S 737 mmHg 98%
    05:00 +18°C° 0 mm 2 m/S 738 mmHg 98%
    06:00 +20°C° 0 mm 2 m/S 738 mmHg 94%
    07:00 +21°C° 0 mm 2 m/S 738 mmHg 90%
    08:00 +22°C° 0 mm 3 m/S 738 mmHg 86%
    09:00 +25°C° 0 mm 3 m/S 738 mmHg 78%
    10:00 +26°C° 0 mm 3 m/S 739 mmHg 70%
    11:00 +27°C° 0 mm 3 m/S 739 mmHg 62%
    12:00 +28°C° 0,2 mm 3 m/S 739 mmHg 63%
    13:00 +28°C° 0,2 mm 3 m/S 739 mmHg 63%
    14:00 +28°C° 0,2 mm 3 m/S 739 mmHg 64%
    15:00 +27°C° 0,7 mm 3 m/S 739 mmHg 72%
    16:00 +25°C° 0,7 mm 3 m/S 739 mmHg 81%
    17:00 +22°C° 0,7 mm 3 m/S 739 mmHg 89%
    18:00 +21°C° 0,1 mm 3 m/S 739 mmHg 91%
    19:00 +20°C° 0,1 mm 2 m/S 739 mmHg 92%
    20:00 +19°C° 0,1 mm 2 m/S 740 mmHg 93%
    21:00 +19°C° 0 mm 2 m/S 740 mmHg 94%
    22:00 +19°C° 0 mm 1 m/S 740 mmHg 95%
    23:00 +18°C° 0 mm 1 m/S 740 mmHg 95%
    Mehr zeigen